Location: Ellerstadt
(49.4644°N, 8.2615°E)
Time: 19:56:30
(UTC+00:00)

Vanguard 1 - Pass Details

Date: 15 June 2021
Orbit: 651 x 3832 km, 34.2° (Epoch: 27 July)

Event Time Altitude Azimuth Distance (km) Brightness Sun altitude
Rises 03:19:38 0° 270° (W) 6,053 13.6 -0.9°
Reaches altitude 10° 03:25:52 10° 255° (WSW) 4,346 12.8 -0.1°
Maximum altitude 03:32:07 17° 220° (SW) 3,068 12.0 0.7°
Drops below altitude 10° 03:36:45 10° 181° (S) 3,045 12.3 1.4°
Sets 03:40:01 0° 161° (SSE) 3,633 12.8 1.8°
